Tracking 28091 objects as of 30-Sep-2023
HD Live streaming from Space Station
objects crossing your sky now

STARLINK-4111

Track STARLINK-4111 now!
10-day predictions
STARLINK-4111 is classified as:


NORAD ID: 53159
Int'l Code: 2022-083AD
Perigee: 546.0 km
Apogee: 547.7 km
Inclination: 53.2 °
Period: 95.4 minutes
Semi major axis: 6917 km
RCS: Unknown
Launch date: July 17, 2022
Source: United States (US)
Launch site: AIR FORCE EASTERN TEST RANGE (AFETR)
Your satellite tracking list
Your tracking list is empty




NASA's NSSDC Master Catalog

Two Line Element Set (TLE):
1 53159U 22083AD  23271.85878992  .00005905  00000-0  38880-3 0  9998
2 53159  53.2161 212.1940 0001225  96.2271 263.8860 15.08839311 66575
Source of the keplerian elements: AFSPC